Hors Challenge

Le Trail Des 3 Rochers - Grand-Halleux (11.60 km)

dimanche 08 septembre 2019

 
LE TRAIL DES 3 ROCHERS - GRAND-HALLEUX
DISTANCE : 11.60 km
dimanche 08 septembre 2019
 
Place dos NOM Catégorie Pl/cat temps temps/km Vitesse
01:00:00              
1 37 NIZET KÉVIN HOMME 1 00:48:50 04:13 14.25
2 33 VAN BAELEN MATTHIAS HOMME 2 00:54:54 04:44 12.68
3 5 CORNELISSEN MICHAEL HOMME 3 00:59:30 05:08 11.70
4 25 VAN DE VELDE WOUTER HOMME 4 01:00:00 05:10 11.60
5 34 DELHAES LUC HOMME 5 01:00:38 05:14 11.48
6 7 GEILEN MARIO HOMME 6 01:02:34 05:24 11.12
7 27 D'HOEDT JAN HOMME 7 01:06:40 05:45 10.44
8 36 ROQUET RAPHAËL HOMME 8 01:06:50 05:46 10.41
9 31 VAN BENEDEN ANTHONY HOMME 9 01:06:52 05:46 10.41
10 10 GAILLARD BJÖRN HOMME 10 01:06:52 05:46 10.41
11 29 WALCKIERS BART HOMME 11 01:06:53 05:46 10.41
12 14 DEBRESSING MICHEL HOMME 12 01:07:24 05:49 10.33
13 8 DE WOLF HEINZ HOMME 13 01:09:14 05:58 10.05
14 23 BODAWE RENÉ HOMME 14 01:09:15 05:58 10.05
15 41 GILSON BENOÎT HOMME 15 01:09:15 05:58 10.05
16 40 DETREMBLEUR JEAN-POL HOMME 16 01:09:15 05:58 10.05
17 46 LEONARD ANNE DAME 1 01:09:15 05:58 10.05
18 28 LEJON NELE DAME 2 01:09:15 05:58 10.05
19 15 DE BRESSING CHARLOTTE DAME 3 01:13:27 06:20 9.48
20 2 VANDEWEYER PATRICK HOMME 17 01:13:56 06:22 9.41
21 19 DE RAEDT KATRIEN DAME 4 01:13:56 06:22 9.41
22 48 BRUYERE CÉLINE DAME 5 01:15:48 06:32 9.18
23 17 JEAN YVES FONDU HOMME 18 01:17:45 06:42 8.95
24 39 LEJEUNE ANDRÉ HOMME 19 01:17:47 06:42 8.95
25 11 TASSIGNON BART HOMME 20 01:17:48 06:42 8.95
26 21 AVERALS PASCAL HOMME 21 01:18:05 06:44 8.91
27 22 JACQUES BENOIT HOMME 22 01:18:22 06:45 8.88
28 38 HUBERMONT FABIEN HOMME 23 01:19:10 06:49 8.79
29 35 WATHELET VANESSA DAME 6 01:19:23 06:51 8.77
30 49 BODSON EMILIE DAME 7 01:24:37 07:18 8.23
31 4 DESMET THIERRY HOMME 24 01:27:13 07:31 7.98
32 20 HANSSENS IDES HOMME 25 01:27:16 07:31 7.98
33 44 JONKEAU ANNE-LISE DAME 8 01:27:38 07:33 7.94
34 26 FERRANTE FRANÇOIS HOMME 26 01:33:02 08:01 7.48
35 45 JACOB JEAN-FRANÇOIS HOMME 27 01:33:04 08:01 7.48
36 42 BLEUS JULIE DAME 9 01:34:22 08:08 7.38
37 43 BOSKIN SIMON HOMME 28 01:34:25 08:08 7.37
38 18 COURTOIS IMELDA DAME 10 01:39:45 08:36 6.98
39 32 GERENS LAURENCE DAME 11 01:57:32 10:08 5.92